Content
SEND FEEDBACK

Daily
Averages
Monthly
Summary
Brazil

RECIFE, PERNAMBUCO


Home > South America > Brazil > Pernambuco
Elevation: 62 feet     Latitude: 08 04S     Longitude: 034 51W

WEATHER
 
SELECT A DAY
Number of Records: 189,379;   Date Range: 6/30/96 - 7/28/14
 
SHARE

PRINT THIS DATA

[ ← Previous Day ]
WEATHER ALMANAC - FEBRUARY 13, 2013
[ Next Day → ]
[ °C ]   °F
Weather ElementAverageHighLow
Temperature83.2 °F89.6 °F (11:00 am)78.8 °F (2:00 am)
Dewpoint69.3 °F71.6 °F (10:00 am)68 °F (12:00 am)
Humidity60.9 %70 % (9:00 pm)46 % (12:00 pm)
Barometer29.87 in29.92 in (10:00 am)29.83 in (1:00 am)
Wind Speed12.3 mph18.4 mph (2:00 pm)
Weather ElementAverage
Visibility7.5 mi
Wind DirectionSSE (153.2 °)

Weather ElementTotal
Precipitation---
Cooling Degree Days19.2 (Base 65)
Growing Degree Days34.2 (Base 50)
Averaged from 31 records on February 13, 2013
WEATHER CONDITIONS BREAKOUT
WIND DIRECTION BREAKOUT
WEATHER BY HOUR - FEBRUARY 13, 2013
[ °C ]   °F
Local TimeTemperatureDewpointHumidityBarometerVisibilityWind DirectionWind SpeedGust SpeedPrecipitationEventsConditions
12:00 AM80.6 °F68.0 °F65 %29.86 in6.2 miSouth (170°)9.2 mphPartly Cloudy
1:00 AM80.6 °F68.0 °F65 %29.83 in6.2 miSouth (180°)9.2 mphScattered Clouds
2:00 AM78.8 °F68.0 °F69 %29.83 in6.2 miSouth (180°)9.2 mphScattered Clouds
3:00 AM79.0 °F68.0 °F60 %29.84 in12.0 miSSE (160°)8.1 mphPartly Cloudy
3:00 AM78.8 °F68.0 °F69 %29.83 in6.2 miSSE (160°)8.1 mphScattered Clouds
4:00 AM78.8 °F68.0 °F69 %29.83 in6.2 miSouth (170°)9.2 mphScattered Clouds
5:00 AM78.8 °F68.0 °F69 %29.86 in6.2 miSSE (160°)8.1 mphScattered Clouds
6:00 AM80.6 °F68.0 °F65 %29.86 in6.2 miSouth (180°)8.1 mphScattered Clouds
6:00 AM80.0 °F68.0 °F58 %29.87 in12.0 miSouth (180°)8.1 mphPartly Cloudy
7:00 AM80.6 °F68.0 °F65 %29.83 in6.2 miSouth (170°)10.4 mphScattered Clouds
8:00 AM82.4 °F69.8 °F66 %29.89 in6.2 miSSE (150°)11.5 mphScattered Clouds
9:00 AM86.0 °F70.0 °F49 %29.91 in12.0 miSSE (150°)13.8 mphMostly Cloudy
9:00 AM86.0 °F69.8 °F58 %29.89 in6.2 miSSE (150°)13.8 mphMostly Cloudy
10:00 AM87.8 °F71.6 °F58 %29.92 in6.2 miSE (140°)16.1 mphMostly Cloudy
11:00 AM89.6 °F71.6 °F55 %29.89 in6.2 miSSE (160°)17.3 mphScattered Clouds
12:00 PM89.6 °F71.6 °F55 %29.89 in6.2 miSSE (150°)16.1 mphScattered Clouds
12:00 PM89.0 °F71.0 °F46 %29.89 in12.0 miSSE (150°)16.1 mphPartly Cloudy
1:00 PM87.8 °F69.8 °F55 %29.86 in6.2 miSE (140°)17.3 mphScattered Clouds
2:00 PM87.8 °F68.0 °F52 %29.86 in6.2 miSE (140°)18.4 mphScattered Clouds
3:00 PM87.0 °F70.0 °F47 %29.85 in12.0 miSSE (160°)16.1 mphPartly Cloudy
3:00 PM87.8 °F69.8 °F55 %29.83 in6.2 miSSE (160°)16.1 mphScattered Clouds
4:00 PM86.0 °F68.0 °F55 %29.83 in6.2 miSE (140°)16.1 mphScattered Clouds
5:00 PM84.2 °F68.0 °F58 %29.83 in6.2 miSSE (150°)11.5 mphPartly Cloudy
6:00 PM82.4 °F69.8 °F66 %29.86 in6.2 miSSE (150°)13.8 mphPartly Cloudy
6:00 PM83.0 °F70.0 °F56 %29.86 in12.0 miSSE (150°)13.8 mphScattered Clouds
7:00 PM82.4 °F69.8 °F66 %29.86 in6.2 miSE (140°)11.5 mphPartly Cloudy
8:00 PM82.4 °F69.8 °F66 %29.89 in6.2 miSE (130°)10.4 mphPartly Cloudy
9:00 PM81.0 °F70.0 °F61 %29.91 in12.0 miSE (140°)11.5 mphPartly Cloudy
9:00 PM80.6 °F69.8 °F70 %29.89 in6.2 miSE (140°)11.5 mphScattered Clouds
10:00 PM80.6 °F69.8 °F70 %29.89 in6.2 miESE (120°)11.5 mphScattered Clouds
11:00 PM80.6 °F69.8 °F70 %29.89 in6.2 miSE (130°)10.4 mphScattered Clouds
Hourly data recorded from SBRF, located miles away from Recife, Pernambuco







STORIES FROM OUR PARTNERS